[[{"header":{"parameterUnit":"m.s-1","parameterCategory":1,"la1":30.2992,"la2":30.254,"lo1":-89.0895,"lo2":-89.0443,"dy":0.0025,"dx":0.0025,"nx":19,"ny":19,"refTime":"2026-03-13T21:00:00:Z","depth":0,"parameterNumber":2,"parameterNumberName":"U-component_of_WINDS"},"data":[0,0,0,-0.2242,-0.2243,-0.2276,-0.2276,-0.2311,-0.2311,0,0,0,0,0,0,0,0,0,0,0,-0.2226,-0.2226,-0.2242,-0.2243,-0.2276,-0.2276,-0.2311,-0.2311,0,0,0,0,0,0,0,0,0,0,0,-0.2226,-0.2226,-0.2226,-0.2243,-0.2276,-0.2276,-0.231,-0.2289,0,0,0,0,0,0,0,0,0,0,-0.2258,-0.2237,-0.2226,-0.2226,-0.2243,-0.2276,-0.2276,-0.2288,-0.229,-0.2292,0,-0.229,0,-0.2301,-0.2312,-0.2313,0,0,0,-0.2248,-0.2235,-0.2249,-0.2226,-0.2243,-0.2276,-0.2263,-0.2289,-0.2292,-0.2295,-0.2291,-0.2292,-0.2301,-0.2313,-0.2313,-0.2302,-0.2301,0,0,-0.2246,-0.2229,-0.2247,-0.2251,-0.2243,-0.2262,-0.2264,-0.2291,-0.2286,-0.2291,-0.2293,-0.2302,-0.2313,-0.2313,-0.2302,-0.2302,0,0,0,-0.2238,-0.2228,-0.2242,-0.2249,-0.2255,-0.2262,-0.2265,-0.2285,-0.2291,-0.2294,-0.2302,-0.2313,-0.2313,-0.2302,-0.2302,-0.2271,0,0,0,-0.2237,-0.2223,-0.2241,-0.2231,-0.2255,-0.227,-0.2258,-0.2289,-0.2293,-0.2302,-0.2313,-0.2313,-0.2303,-0.2302,-0.2272,-0.2259,0,0,0,-0.2226,-0.2222,-0.2224,-0.223,-0.2243,-0.227,-0.2278,-0.229,-0.2298,-0.2313,-0.2313,-0.2303,-0.2302,-0.2274,-0.2261,-0.2251,0,0,0,-0.2211,-0.2197,-0.2223,-0.2211,-0.2243,-0.225,-0.2278,-0.2285,-0.2294,-0.2313,-0.2303,-0.2302,-0.2274,-0.2263,-0.2252,-0.2239,-0.2232,0,0,-0.2184,-0.2193,-0.2187,-0.2212,-0.221,-0.2246,-0.2241,-0.2266,-0.2283,-0.2295,-0.2295,-0.2272,-0.2262,-0.2251,-0.2198,-0.2192,0,0,0,-0.2173,-0.2168,-0.2171,-0.2178,-0.2196,-0.2211,-0.2238,-0.2248,-0.2258,-0.2285,-0.2266,-0.226,-0.2255,-0.225,-0.2245,-0.2241,-0.2299,-0.2299,-0.2299,-0.2111,-0.2133,-0.2124,-0.215,-0.2157,-0.2185,-0.2193,-0.221,-0.2232,-0.2226,-0.223,-0.2195,-0.2188,-0.2184,-0.218,-0.2225,-0.2225,-0.2225,-0.2225,-0.2073,-0.207,-0.2098,-0.21,-0.2123,-0.2126,-0.2152,-0.2167,-0.2173,-0.2194,-0.219,-0.2211,-0.2177,-0.2175,-0.2223,-0.2223,-0.2223,-0.2223,-0.2224,-0.2035,-0.2038,-0.2048,-0.206,-0.2068,-0.2095,-0.2099,-0.2121,-0.2142,-0.2138,-0.2145,-0.2145,-0.2149,-0.214,-0.214,-0.2139,-0.2139,-0.2139,-0.2139,-0.1992,-0.2005,-0.2005,-0.2022,-0.2029,-0.2042,-0.2069,-0.2078,-0.2092,-0.2108,-0.2108,-0.213,-0.2169,-0.2179,-0.2137,-0.2138,-0.2138,-0.2138,-0.2138,-0.1947,-0.196,-0.196,-0.1967,-0.1989,-0.1995,-0.2022,-0.2037,-0.2047,-0.2049,-0.2071,-0.2096,-0.2108,-0.2112,-0.212,-0.2066,-0.2066,-0.2066,-0.2066,-0.1915,-0.1922,-0.1927,-0.1937,-0.1949,-0.1974,-0.1975,-0.1996,-0.202,-0.2028,-0.2039,-0.2051,-0.2055,-0.2064,-0.207,-0.2077,-0.2014,-0.2014,-0.2014,-0.1889,-0.1898,-0.1894,-0.1916,-0.1935,-0.1951,-0.1952,-0.1963,-0.1994,-0.2012,-0.2035,-0.2037,-0.2057,-0.2063,-0.2082,-0.2089,-0.2104,0,0]},{"header":{"parameterUnit":"m.s-1","parameterCategory":1,"la1":30.2992,"la2":30.254,"lo1":-89.0895,"lo2":-89.0443,"dy":0.0025,"dx":0.0025,"nx":19,"ny":19,"refTime":"2026-03-13T21:00:00:Z","depth":0,"parameterNumber":3,"parameterNumberName":"V-component_of_WINDS"},"data":[0,0,0,1.5414,1.5415,1.544,1.544,1.549,1.5491,0,0,0,0,0,0,0,0,0,0,0,1.5418,1.5419,1.5414,1.5415,1.544,1.544,1.549,1.5491,0,0,0,0,0,0,0,0,0,0,0,1.5418,1.5419,1.542,1.5415,1.544,1.544,1.549,1.5464,0,0,0,0,0,0,0,0,0,0,1.5437,1.5452,1.5419,1.542,1.5415,1.544,1.544,1.5463,1.5466,1.5487,0,1.5509,0,1.5501,1.5495,1.5496,0,0,0,1.5406,1.545,1.5446,1.542,1.5416,1.544,1.5426,1.5464,1.5468,1.5491,1.5509,1.5511,1.5502,1.5496,1.5496,1.5645,1.5646,0,0,1.5405,1.5429,1.5444,1.5449,1.5447,1.5425,1.5427,1.5466,1.5488,1.551,1.5512,1.5502,1.5496,1.5497,1.5644,1.5645,0,0,0,1.5407,1.5429,1.5423,1.5447,1.5451,1.5426,1.5428,1.5486,1.5482,1.5512,1.5503,1.5497,1.5498,1.5643,1.5645,1.5722,0,0,0,1.5405,1.5429,1.5423,1.5438,1.545,1.5469,1.5447,1.548,1.5483,1.5503,1.5497,1.5498,1.5642,1.5644,1.5717,1.5754,0,0,0,1.5413,1.543,1.5438,1.5439,1.5451,1.5467,1.5466,1.548,1.5478,1.5496,1.5498,1.5641,1.5643,1.5712,1.5747,1.5799,0,0,0,1.5427,1.5507,1.5439,1.5525,1.5451,1.5515,1.5465,1.5512,1.5536,1.5497,1.5642,1.5644,1.5711,1.5742,1.5795,1.5847,1.5871,0,0,1.5541,1.5521,1.5569,1.551,1.5592,1.551,1.5603,1.5603,1.5583,1.5625,1.5629,1.5718,1.5746,1.5798,1.6,1.6019,0,0,0,1.5614,1.5648,1.5665,1.5689,1.5691,1.5694,1.5677,1.5677,1.5712,1.561,1.5751,1.5767,1.5796,1.582,1.5837,1.586,1.5657,1.5656,1.5656,1.5809,1.5778,1.5855,1.5828,1.5852,1.5832,1.5849,1.5845,1.5808,1.5842,1.5854,1.598,1.6009,1.6021,1.6045,1.588,1.588,1.588,1.588,1.5972,1.6015,1.5963,1.6019,1.5986,1.6033,1.6017,1.5989,1.6027,1.5969,1.5993,1.5931,1.6043,1.6063,1.5886,1.5885,1.5884,1.5884,1.5883,1.6095,1.6111,1.6109,1.6139,1.6166,1.6135,1.6174,1.6143,1.6114,1.6138,1.6147,1.6145,1.6139,1.6145,1.6145,1.6146,1.6146,1.6146,1.6147,1.6224,1.6219,1.6255,1.6263,1.6273,1.6283,1.6264,1.6274,1.6276,1.6251,1.625,1.6209,1.606,1.6023,1.6153,1.6152,1.6151,1.6151,1.615,1.6398,1.6354,1.641,1.642,1.6426,1.6454,1.6414,1.6436,1.6439,1.6459,1.6412,1.6308,1.6285,1.6272,1.6241,1.6419,1.6419,1.6419,1.6419,1.6502,1.6487,1.6537,1.6555,1.657,1.6539,1.6603,1.6589,1.6567,1.6567,1.6537,1.6493,1.6481,1.6466,1.6448,1.6418,1.6638,1.6639,1.6639,1.6607,1.6592,1.6652,1.663,1.6631,1.6633,1.6692,1.6715,1.6682,1.6647,1.6566,1.6557,1.6486,1.6465,1.6428,1.6401,1.6346,0,0]}]]